カタログに戻る

USA 198

運用中軍事HEO
NORAD 32378·PAYLOAD·🇺🇸 United States

打ち上げ Dec 10, 2007 から Cape Canaveral Space Force Station

Loading…

次のパス (今後24時間)

TLE

最新Source: Mike McCants

元期: Sep 14, 2026, 20:32 UTC

1 32378U 07060A   26257.85565942  .00000597  00000-0  00000-0 0    06
2 32378  63.9470 113.2307 7228419 262.0577  18.0034  2.00596936  4575

AllMySatでUSA 198をリアルタイム追跡

Download on the App Store